KC4YVV-22 Weather Reports


time (UTC)temp
F
wind
direction
speed
knots
gust
knots
rain 1hr
in
rain 24hr
in
rain mn
in
humidity
%
barometer
mb
20260906121544 72 0 0.0 0.0 0.00 0.00 0.00 59 1014.7
20260906120039 72 0 0.0 0.0 0.00 0.00 0.00 60 1014.7
20260906114541 72 0 0.0 0.0 0.00 0.00 0.00 61 1014.5
20260906113044 72 0 0.0 0.0 0.00 0.00 0.00 61 1014.3
20260906111541 72 0 0.0 0.0 0.00 0.00 0.00 62 1014.3
20260906110042 72 0 0.0 0.0 0.00 0.00 0.00 62 1014.1
20260906104542 72 0 0.0 0.0 0.00 0.00 0.00 62 1014.0
20260906103040 72 0 0.0 0.0 0.00 0.00 0.00 63 1013.9
20260906101538 72 0 0.0 0.0 0.00 0.00 0.00 63 1013.9
20260906100043 73 0 0.0 0.0 0.00 0.00 0.00 63 1013.8
20260906094541 73 0 0.0 0.0 0.00 0.00 0.00 61 1013.9
20260906093049 73 0 0.0 0.0 0.00 0.00 0.00 60 1013.9
20260906091543 73 0 0.0 0.0 0.00 0.00 0.00 60 1013.8
20260906090045 73 0 0.0 0.0 0.00 0.00 0.00 59 1014.0
20260906084545 73 0 0.0 0.0 0.00 0.00 0.00 59 1014.0
20260906083043 73 0 0.0 0.0 0.00 0.00 0.00 61 1014.0
20260906081551 73 0 0.0 0.0 0.00 0.00 0.00 62 1014.2
20260906080042 73 0 0.0 0.0 0.00 0.00 0.00 62 1014.3
20260906074546 73 0 0.0 0.0 0.00 0.00 0.00 62 1014.1
20260906073054 73 0 0.0 0.0 0.00 0.00 0.00 62 1013.5
20260906071544 73 0 0.0 0.0 0.00 0.00 0.00 62 1013.6
20260906070053 73 0 0.0 0.0 0.00 0.00 0.00 63 1013.4
20260906064543 73 0 0.0 0.0 0.00 0.00 0.00 62 1013.3
20260906063044 73 0 0.0 0.0 0.00 0.00 0.00 64 1013.6
20260906061553 73 0 0.0 0.0 0.00 0.00 0.00 64 1013.7
20260906060043 73 0 0.0 0.0 0.00 0.00 0.00 65 1013.7
20260906054544 73 0 0.0 0.0 0.00 0.00 0.00 64 1013.6
20260906053044 74 0 0.0 0.0 0.00 0.00 0.00 64 1013.8
20260906051540 73 0 0.0 0.0 0.00 0.00 0.00 64 1014.1
20260906050101 73 0 0.0 0.0 0.00 0.00 0.00 66 1014.4
20260906044538 73 0 0.0 0.0 0.00 0.00 0.00 67 1014.5
20260906043052 74 0 0.0 0.0 0.00 0.00 0.00 67 1014.5
20260906041539 74 0 0.0 0.0 0.00 0.00 0.00 68 1014.8
20260906040054 74 0 0.0 0.0 0.00 0.00 0.00 69 1014.9
20260906034535 74 0 0.0 0.0 0.00 0.00 0.00 70 1014.6
20260906033044 75 0 0.0 0.0 0.00 0.00 0.00 70 1014.7
20260906031540 75 0 0.0 0.0 0.00 0.00 0.00 70 1014.6
20260906030040 75 0 0.0 0.0 0.00 0.00 0.00 71 1014.4
20260906024541 75 0 0.0 0.0 0.00 0.00 0.00 71 1014.1
20260906023054 76 0 0.0 0.0 0.00 0.00 0.00 71 1013.8
20260906021540 76 0 0.0 0.0 0.00 0.00 0.00 71 1013.7
20260906020039 76 0 0.0 0.0 0.00 0.00 0.00 72 1013.8
20260906014551 76 0 0.0 0.0 0.00 0.00 0.00 74 1013.7
20260906013039 76 0 0.0 0.0 0.00 0.00 0.00 75 1013.7
20260906011550 77 0 0.0 0.0 0.00 0.00 0.00 77 1013.7
20260906010043 77 0 0.0 0.0 0.00 0.00 0.00 78 1013.6
20260906004540 77 0 0.0 0.0 0.00 0.00 0.00 80 1013.8
20260906003042 78 0 0.0 0.0 0.00 0.00 0.00 81 1013.7
20260906001544 78 0 0.0 0.0 0.00 0.00 0.00 82 1013.8
20260906000038 79 0 0.0 0.0 0.00 0.00 0.00 82 1013.7
20260905234551 80 0 0.0 0.0 0.00 0.00 0.00 82 1013.6
20260905233040 81 0 0.0 0.0 0.00 0.00 0.00 80 1013.5
20260905231539 83 0 0.0 0.0 0.00 0.00 0.00 78 1013.5
20260905230044 85 0 0.0 0.0 0.00 0.00 0.00 74 1013.1
20260905224539 86 0 0.0 0.0 0.00 0.00 0.00 71 1013.2
20260905223039 87 259 0.0 0.9 0.00 0.00 0.00 70 1013.4
20260905221542 87 259 0.9 2.6 0.00 0.00 0.00 69 1013.5
20260905220041 83 0 0.0 0.0 0.00 0.00 0.00 77 1013.7
20260905214541 80 0 0.0 0.0 0.00 0.00 0.00 82 1013.6
20260905213044 80 0 0.0 0.0 0.00 0.00 0.00 81 1013.9
20260905211541 80 0 0.0 0.0 0.00 0.00 0.00 81 1014.1
20260905210039 80 0 0.0 0.0 0.00 0.00 0.00 81 1013.9
20260905204537 80 0 0.0 0.0 0.00 0.00 0.00 80 1014.0
20260905203039 80 0 0.0 2.6 0.00 0.00 0.00 79 1014.4
20260905201538 80 0 0.0 0.0 0.00 0.00 0.00 78 1014.5
20260905200046 80 0 0.0 0.0 0.00 0.00 0.00 79 1014.4
20260905194538 81 0 0.0 0.0 0.00 0.00 0.00 79 1014.7
20260905193041 81 0 0.0 0.0 0.00 0.00 0.00 77 1015.0
20260905191538 83 0 0.0 0.0 0.00 0.00 0.00 74 1015.2
20260905190048 86 0 0.0 0.0 0.00 0.00 0.00 68 1014.9
20260905184555 90 0 0.0 1.7 0.00 0.00 0.00 63 1015.0
20260905183046 94 0 0.0 1.7 0.00 0.00 0.00 56 1014.6
20260905181544 95 0 1.7 4.3 0.00 0.00 0.00 54 1014.1
20260905180038 94 0 0.0 0.0 0.00 0.00 0.00 54 1014.4
20260905174541 93 0 0.0 5.2 0.00 0.00 0.00 58 1014.4
20260905173039 92 0 0.0 3.5 0.00 0.00 0.00 58 1014.7
20260905171538 91 0 1.7 5.2 0.00 0.00 0.00 61 1014.7
20260905170041 91 0 0.0 0.0 0.00 0.00 0.00 61 1015.3
20260905164541 91 0 0.0 0.0 0.00 0.00 0.00 63 1015.7
20260905163040 90 0 0.0 0.0 0.00 0.00 0.00 64 1015.7
20260905161538 89 0 0.0 0.0 0.00 0.00 0.00 66 1015.8
20260905160040 87 0 0.0 0.0 0.00 0.00 0.00 70 1015.8
20260905154542 86 0 0.0 0.0 0.00 0.00 0.00 72 1015.7
20260905153051 85 0 0.0 0.0 0.00 0.00 0.00 75 1016.0
20260905151544 84 0 0.0 0.0 0.00 0.00 0.00 77 1016.2
20260905150044 83 0 0.0 0.0 0.00 0.00 0.00 77 1016.2
20260905144540 83 0 0.0 0.0 0.00 0.00 0.00 79 1016.3
20260905143040 81 0 0.0 0.0 0.00 0.00 0.00 81 1016.3
20260905141538 80 0 0.0 0.0 0.00 0.00 0.00 82 1016.4
20260905140041 79 0 0.0 0.0 0.00 0.00 0.00 78 1016.6
20260905134539 78 0 0.0 0.0 0.00 0.00 0.00 72 1016.7
20260905133037 77 0 0.0 0.0 0.00 0.00 0.00 66 1016.7
20260905131557 76 0 0.0 0.0 0.00 0.00 0.00 62 1016.7
20260905130046 75 0 0.0 0.0 0.00 0.00 0.00 59 1016.9
20260905124536 74 0 0.0 0.0 0.00 0.00 0.00 59 1016.9
20260905123037 74 0 0.0 0.0 0.00 0.00 0.00 59 1016.8